Time,TemperatureF,DewpointF,PressureIn,WindDirection,WindDirectionDegrees,WindSpeedMPH,WindSpeedGustMPH,Humidity,HourlyPrecipIn,Conditions,Clouds,dailyrainin,SolarRadiationWatts/m^2,SoftwareType,DateUTC
2013-03-03 00:00:00,56.9,49.8,30.09,North,355,0.0,8.0,77,0.00,,,0.00,0,Wunderground v.1.15,2013-03-03 08:00:00,
2013-03-03 00:05:00,57.1,50.0,30.09,North,355,0.0,8.0,77,0.00,,,0.00,0,Wunderground v.1.15,2013-03-03 08:05:00,
2013-03-03 00:10:00,57.1,49.6,30.08,North,355,0.0,8.0,76,0.00,,,0.00,0,Wunderground v.1.15,2013-03-03 08:10:00,
2013-03-03 00:20:00,56.3,49.5,30.09,NE,37,1.0,8.0,78,0.00,,,0.00,0,Wunderground v.1.15,2013-03-03 08:20:00,
2013-03-03 00:25:00,56.2,49.4,30.09,NE,37,1.0,8.0,78,0.00,,,0.00,0,Wunderground v.1.15,2013-03-03 08:25:00,
2013-03-03 00:30:00,55.9,49.5,30.08,NE,37,1.0,1.0,79,0.00,,,0.00,0,Wunderground v.1.15,2013-03-03 08:30:00,
2013-03-03 00:35:00,55.9,49.5,30.08,NE,37,0.0,8.0,79,0.00,,,0.00,0,Wunderground v.1.15,2013-03-03 08:35:00,
2013-03-03 00:45:00,55.4,49.3,30.09,NE,37,0.0,8.0,80,0.00,,,0.00,0,Wunderground v.1.15,2013-03-03 08:45:00,
2013-03-03 00:50:00,55.6,49.2,30.09,NE,37,0.0,8.0,79,0.00,,,0.00,0,Wunderground v.1.15,2013-03-03 08:50:00,
2013-03-03 00:55:00,55.8,49.4,30.09,NE,37,0.0,8.0,79,0.00,,,0.00,0,Wunderground v.1.15,2013-03-03 08:55:00,
2013-03-03 01:05:00,55.3,49.2,30.09,ENE,61,0.0,8.0,80,0.00,,,0.00,0,Wunderground v.1.15,2013-03-03 09:05:00,
2013-03-03 01:10:00,55.5,49.1,30.09,ENE,61,1.0,1.0,79,0.00,,,0.00,0,Wunderground v.1.15,2013-03-03 09:10:00,
2013-03-03 01:20:00,54.7,48.6,30.09,ENE,61,0.0,8.0,80,0.00,,,0.00,0,Wunderground v.1.15,2013-03-03 09:20:00,
2013-03-03 01:25:00,53.9,48.2,30.09,ENE,61,0.0,8.0,81,0.00,,,0.00,0,Wunderground v.1.15,2013-03-03 09:25:00,
2013-03-03 01:35:00,53.3,48.3,30.09,ENE,61,0.0,8.0,83,0.00,,,0.00,0,Wunderground v.1.15,2013-03-03 09:35:00,
2013-03-03 01:40:00,53.2,48.2,30.09,ENE,61,0.0,8.0,83,0.00,,,0.00,0,Wunderground v.1.15,2013-03-03 09:40:00,
2013-03-03 01:45:00,53.0,48.3,30.09,ENE,61,0.0,8.0,84,0.00,,,0.00,0,Wunderground v.1.15,2013-03-03 09:45:00,
2013-03-03 01:50:00,52.9,48.2,30.08,ENE,61,0.0,8.0,84,0.00,,,0.00,0,Wunderground v.1.15,2013-03-03 09:50:00,
2013-03-03 02:00:00,52.7,48.0,30.09,ENE,61,0.0,8.0,84,0.00,,,0.00,0,Wunderground v.1.15,2013-03-03 10:00:00,
2013-03-03 02:05:00,52.8,48.1,30.09,ENE,61,0.0,8.0,84,0.00,,,0.00,0,Wunderground v.1.15,2013-03-03 10:05:00,
2013-03-03 02:10:00,52.8,48.1,30.09,ENE,61,0.0,8.0,84,0.00,,,0.00,0,Wunderground v.1.15,2013-03-03 10:10:00,
2013-03-03 02:20:00,53.2,48.2,30.09,ENE,61,0.0,8.0,83,0.00,,,0.00,0,Wunderground v.1.15,2013-03-03 10:20:00,
2013-03-03 02:30:00,52.5,47.8,30.08,ENE,61,0.0,8.0,84,0.00,,,0.00,0,Wunderground v.1.15,2013-03-03 10:30:00,
2013-03-03 02:35:00,52.2,47.8,30.09,ENE,61,0.0,8.0,85,0.00,,,0.00,0,Wunderground v.1.15,2013-03-03 10:35:00,
2013-03-03 02:45:00,52.1,47.7,30.08,ENE,61,0.0,8.0,85,0.00,,,0.00,0,Wunderground v.1.15,2013-03-03 10:45:00,
2013-03-03 02:50:00,52.0,47.6,30.08,ENE,61,0.0,8.0,85,0.00,,,0.00,0,Wunderground v.1.15,2013-03-03 10:50:00,
2013-03-03 02:55:00,52.1,47.7,30.08,ENE,65,0.0,8.0,85,0.00,,,0.00,0,Wunderground v.1.15,2013-03-03 10:55:00,
2013-03-03 03:00:00,52.7,48.3,30.08,ENE,65,1.0,1.0,85,0.00,,,0.00,0,Wunderground v.1.15,2013-03-03 11:00:00,
2013-03-03 03:05:00,53.2,48.2,30.07,ENE,66,1.0,8.0,83,0.00,,,0.00,0,Wunderground v.1.15,2013-03-03 11:05:00,
2013-03-03 03:15:00,53.6,48.2,30.07,ENE,65,1.0,8.0,82,0.00,,,0.00,0,Wunderground v.1.15,2013-03-03 11:15:00,
2013-03-03 03:20:00,53.6,47.9,30.07,ENE,64,1.0,1.0,81,0.00,,,0.00,0,Wunderground v.1.15,2013-03-03 11:20:00,
2013-03-03 03:25:00,53.5,47.8,30.07,East,81,1.0,8.0,81,0.00,,,0.00,0,Wunderground v.1.15,2013-03-03 11:25:00,
2013-03-03 03:35:00,53.3,47.9,30.07,East,81,0.0,8.0,82,0.00,,,0.00,0,Wunderground v.1.15,2013-03-03 11:35:00,
2013-03-03 03:40:00,53.2,47.8,30.07,East,81,0.0,8.0,82,0.00,,,0.00,0,Wunderground v.1.15,2013-03-03 11:40:00,
2013-03-03 03:45:00,53.1,47.7,30.07,East,81,0.0,8.0,82,0.00,,,0.00,0,Wunderground v.1.15,2013-03-03 11:45:00,
2013-03-03 03:55:00,52.3,47.3,30.07,East,81,0.0,8.0,83,0.00,,,0.00,0,Wunderground v.1.15,2013-03-03 11:55:00,
2013-03-03 04:00:00,52.1,47.4,30.07,East,81,0.0,8.0,84,0.00,,,0.00,0,Wunderground v.1.15,2013-03-03 12:00:00,
2013-03-03 04:10:00,52.0,47.3,30.07,East,81,0.0,8.0,84,0.00,,,0.00,0,Wunderground v.1.15,2013-03-03 12:10:00,
2013-03-03 04:20:00,51.6,47.2,30.07,East,81,0.0,8.0,85,0.00,,,0.00,0,Wunderground v.1.15,2013-03-03 12:20:00,
2013-03-03 04:25:00,51.5,46.8,30.07,East,81,0.0,8.0,84,0.00,,,0.00,0,Wunderground v.1.15,2013-03-03 12:25:00,
2013-03-03 04:30:00,51.4,47.0,30.07,East,81,0.0,8.0,85,0.00,,,0.00,0,Wunderground v.1.15,2013-03-03 12:30:00,
2013-03-03 04:40:00,51.3,46.9,30.07,East,81,0.0,8.0,85,0.00,,,0.00,0,Wunderground v.1.15,2013-03-03 12:40:00,
2013-03-03 04:45:00,51.3,46.9,30.07,East,81,0.0,8.0,85,0.00,,,0.00,0,Wunderground v.1.15,2013-03-03 12:45:00,
2013-03-03 04:50:00,51.6,47.2,30.07,ENE,67,1.0,8.0,85,0.00,,,0.00,0,Wunderground v.1.15,2013-03-03 12:50:00,
2013-03-03 04:55:00,52.6,47.6,30.07,ENE,67,1.0,8.0,83,0.00,,,0.00,0,Wunderground v.1.15,2013-03-03 12:55:00,
2013-03-03 05:00:00,53.3,47.9,30.07,ENE,67,1.0,1.0,82,0.00,,,0.00,0,Wunderground v.1.15,2013-03-03 13:00:00,
2013-03-03 05:10:00,53.5,47.5,30.07,ENE,67,0.0,8.0,80,0.00,,,0.00,0,Wunderground v.1.15,2013-03-03 13:10:00,
2013-03-03 05:15:00,53.7,47.7,30.07,ENE,67,0.0,8.0,80,0.00,,,0.00,0,Wunderground v.1.15,2013-03-03 13:15:00,
2013-03-03 05:20:00,53.8,47.4,30.07,ENE,67,0.0,8.0,79,0.00,,,0.00,0,Wunderground v.1.15,2013-03-03 13:20:00,
2013-03-03 05:25:00,53.5,47.8,30.07,ENE,67,0.0,8.0,81,0.00,,,0.00,0,Wunderground v.1.15,2013-03-03 13:25:00,
2013-03-03 05:35:00,53.5,47.5,30.07,ENE,67,0.0,8.0,80,0.00,,,0.00,0,Wunderground v.1.15,2013-03-03 13:35:00,
2013-03-03 05:40:00,53.4,47.7,30.07,ENE,67,0.0,8.0,81,0.00,,,0.00,0,Wunderground v.1.15,2013-03-03 13:40:00,
2013-03-03 05:45:00,53.1,47.4,30.07,ENE,67,0.0,8.0,81,0.00,,,0.00,0,Wunderground v.1.15,2013-03-03 13:45:00,
2013-03-03 05:55:00,54.1,47.4,30.07,WNW,298,0.0,8.0,78,0.00,,,0.00,0,Wunderground v.1.15,2013-03-03 13:55:00,
2013-03-03 06:05:00,54.4,47.3,30.06,WNW,292,1.0,8.0,77,0.00,,,0.00,0,Wunderground v.1.15,2013-03-03 14:05:00,
2013-03-03 06:10:00,54.5,47.4,30.06,SW,228,1.0,1.0,77,0.00,,,0.00,0,Wunderground v.1.15,2013-03-03 14:10:00,
2013-03-03 06:15:00,54.4,47.3,30.06,SW,234,0.0,8.0,77,0.00,,,0.00,0,Wunderground v.1.15,2013-03-03 14:15:00,
2013-03-03 06:25:00,54.3,47.2,30.06,NNE,15,0.0,8.0,77,0.00,,,0.00,0,Wunderground v.1.15,2013-03-03 14:25:00,
2013-03-03 06:30:00,54.4,47.3,30.06,NE,53,1.0,1.0,77,0.00,,,0.00,0,Wunderground v.1.15,2013-03-03 14:30:00,
2013-03-03 06:35:00,54.4,47.3,30.06,West,267,1.0,2.0,77,0.00,,,0.00,0,Wunderground v.1.15,2013-03-03 14:35:00,
2013-03-03 06:40:00,54.4,47.3,30.06,ENE,78,1.0,8.0,77,0.00,,,0.00,0,Wunderground v.1.15,2013-03-03 14:40:00,
2013-03-03 06:45:00,54.4,47.3,30.06,West,273,1.0,8.0,77,0.00,,,0.00,0,Wunderground v.1.15,2013-03-03 14:45:00,
2013-03-03 06:55:00,54.4,47.7,30.06,ENE,72,1.0,8.0,78,0.00,,,0.00,7,Wunderground v.1.15,2013-03-03 14:55:00,
2013-03-03 07:00:00,54.4,47.7,30.06,East,80,1.0,1.0,78,0.00,,,0.00,11,Wunderground v.1.15,2013-03-03 15:00:00,
2013-03-03 07:05:00,54.4,47.7,30.06,ENE,63,0.0,8.0,78,0.00,,,0.00,16,Wunderground v.1.15,2013-03-03 15:05:00,
2013-03-03 07:10:00,54.4,47.7,30.06,ENE,61,0.0,8.0,78,0.00,,,0.00,21,Wunderground v.1.15,2013-03-03 15:10:00,
2013-03-03 07:20:00,54.4,47.7,30.06,NE,38,0.0,8.0,78,0.00,,,0.00,30,Wunderground v.1.15,2013-03-03 15:20:00,
2013-03-03 07:25:00,54.5,47.8,30.07,ENE,59,0.0,8.0,78,0.00,,,0.00,33,Wunderground v.1.15,2013-03-03 15:25:00,
2013-03-03 07:30:00,54.4,48.0,30.07,ENE,59,1.0,1.0,79,0.00,,,0.00,39,Wunderground v.1.15,2013-03-03 15:30:00,
2013-03-03 07:40:00,54.5,47.8,30.07,ENE,59,0.0,8.0,78,0.00,,,0.00,49,Wunderground v.1.15,2013-03-03 15:40:00,
2013-03-03 07:45:00,54.6,47.9,30.07,ENE,64,0.0,8.0,78,0.00,,,0.00,56,Wunderground v.1.15,2013-03-03 15:45:00,
2013-03-03 07:50:00,54.7,48.3,30.07,East,80,1.0,8.0,79,0.00,,,0.00,63,Wunderground v.1.15,2013-03-03 15:50:00,
2013-03-03 07:55:00,54.8,48.4,30.07,East,80,0.0,8.0,79,0.00,,,0.00,69,Wunderground v.1.15,2013-03-03 15:55:00,
2013-03-03 08:05:00,55.1,48.4,30.07,WNW,286,0.0,8.0,78,0.00,,,0.00,83,Wunderground v.1.15,2013-03-03 16:05:00,
2013-03-03 08:10:00,55.3,48.2,30.07,NW,304,0.0,8.0,77,0.00,,,0.00,79,Wunderground v.1.15,2013-03-03 16:10:00,
2013-03-03 08:20:00,55.3,48.2,30.07,NW,304,0.0,8.0,77,0.00,,,0.00,81,Wunderground v.1.15,2013-03-03 16:20:00,
2013-03-03 08:25:00,55.9,49.1,30.07,SW,232,0.0,8.0,78,0.00,,,0.00,174,Wunderground v.1.15,2013-03-03 16:25:00,
2013-03-03 08:30:00,57.2,50.1,30.07,SSE,158,0.0,8.0,77,0.00,,,0.00,220,Wunderground v.1.15,2013-03-03 16:30:00,
2013-03-03 08:35:00,58.1,50.2,30.07,West,278,1.0,8.0,75,0.00,,,0.00,237,Wunderground v.1.15,2013-03-03 16:35:00,
2013-03-03 08:45:00,57.8,49.6,30.07,West,274,1.0,8.0,74,0.00,,,0.00,118,Wunderground v.1.15,2013-03-03 16:45:00,
2013-03-03 08:50:00,57.5,48.9,30.07,South,176,1.0,1.0,73,0.00,,,0.00,90,Wunderground v.1.15,2013-03-03 16:50:00,
2013-03-03 09:00:00,56.9,48.7,30.07,NW,304,1.0,8.0,74,0.00,,,0.00,128,Wunderground v.1.15,2013-03-03 17:00:00,
2013-03-03 09:05:00,57.0,49.5,30.07,NW,319,1.0,8.0,76,0.00,,,0.00,156,Wunderground v.1.15,2013-03-03 17:05:00,
2013-03-03 09:10:00,57.3,49.8,30.07,NW,319,0.0,8.0,76,0.00,,,0.00,132,Wunderground v.1.15,2013-03-03 17:10:00,
2013-03-03 09:15:00,57.4,49.2,30.07,NW,319,0.0,8.0,74,0.00,,,0.00,146,Wunderground v.1.15,2013-03-03 17:15:00,
2013-03-03 09:20:00,57.6,49.7,30.07,SW,221,1.0,8.0,75,0.00,,,0.00,183,Wunderground v.1.15,2013-03-03 17:20:00,
2013-03-03 09:30:00,58.1,49.9,30.07,SSW,196,1.0,1.0,74,0.00,,,0.00,267,Wunderground v.1.15,2013-03-03 17:30:00,
2013-03-03 09:35:00,58.5,49.9,30.07,SSW,197,1.0,8.0,73,0.00,,,0.00,171,Wunderground v.1.15,2013-03-03 17:35:00,
2013-03-03 09:40:00,58.7,50.1,30.07,SSW,196,0.0,8.0,73,0.00,,,0.00,171,Wunderground v.1.15,2013-03-03 17:40:00,
2013-03-03 09:45:00,60.1,51.0,30.07,West,265,0.0,8.0,72,0.00,,,0.00,348,Wunderground v.1.15,2013-03-03 17:45:00,
2013-03-03 09:55:00,61.9,51.6,30.07,West,261,2.0,8.0,69,0.00,,,0.00,533,Wunderground v.1.15,2013-03-03 17:55:00,
2013-03-03 10:00:00,62.8,51.3,30.08,South,190,1.0,8.0,66,0.00,,,0.00,619,Wunderground v.1.15,2013-03-03 18:00:00,
2013-03-03 10:10:00,63.0,51.0,30.08,West,278,2.0,2.0,65,0.00,,,0.00,302,Wunderground v.1.15,2013-03-03 18:10:00,
2013-03-03 10:15:00,62.1,50.6,30.07,South,182,2.0,7.0,66,0.00,,,0.00,306,Wunderground v.1.15,2013-03-03 18:15:00,
2013-03-03 10:20:00,63.0,50.2,30.07,NNW,345,2.0,2.0,63,0.00,,,0.00,587,Wunderground v.1.15,2013-03-03 18:20:00,
2013-03-03 10:25:00,64.0,50.7,30.07,NW,321,2.0,8.0,62,0.00,,,0.00,689,Wunderground v.1.15,2013-03-03 18:25:00,
2013-03-03 10:35:00,65.1,51.3,30.06,West,274,2.0,8.0,61,0.00,,,0.00,770,Wunderground v.1.15,2013-03-03 18:35:00,
2013-03-03 10:40:00,65.0,51.7,30.07,SSE,163,2.0,8.0,62,0.00,,,0.00,378,Wunderground v.1.15,2013-03-03 18:40:00,
2013-03-03 10:45:00,64.3,50.6,30.07,West,259,2.0,8.0,61,0.00,,,0.00,248,Wunderground v.1.15,2013-03-03 18:45:00,
2013-03-03 10:50:00,63.8,50.5,30.07,SSW,211,2.0,8.0,62,0.00,,,0.00,269,Wunderground v.1.15,2013-03-03 18:50:00,
2013-03-03 11:00:00,64.9,51.1,30.06,SSE,155,3.0,3.0,61,0.00,,,0.00,721,Wunderground v.1.15,2013-03-03 19:00:00,
2013-03-03 11:05:00,66.3,50.1,30.07,SW,217,3.0,8.0,56,0.00,,,0.00,803,Wunderground v.1.15,2013-03-03 19:05:00,
2013-03-03 11:10:00,65.3,50.1,30.07,West,274,2.0,8.0,58,0.00,,,0.00,424,Wunderground v.1.15,2013-03-03 19:10:00,
2013-03-03 11:20:00,64.4,50.7,30.07,WNW,289,2.0,8.0,61,0.00,,,0.00,397,Wunderground v.1.15,2013-03-03 19:20:00,
2013-03-03 11:25:00,64.3,50.6,30.07,West,261,2.0,8.0,61,0.00,,,0.00,424,Wunderground v.1.15,2013-03-03 19:25:00,
2013-03-03 11:30:00,64.2,50.5,30.07,West,262,3.0,8.0,61,0.00,,,0.00,397,Wunderground v.1.15,2013-03-03 19:30:00,
2013-03-03 11:35:00,64.1,49.9,30.07,West,277,3.0,8.0,60,0.00,,,0.00,264,Wunderground v.1.15,2013-03-03 19:35:00,
2013-03-03 11:45:00,65.3,51.5,30.07,West,265,3.0,8.0,61,0.00,,,0.00,696,Wunderground v.1.15,2013-03-03 19:45:00,
2013-03-03 11:50:00,65.4,49.3,30.06,SW,227,3.0,3.0,56,0.00,,,0.00,582,Wunderground v.1.15,2013-03-03 19:50:00,
2013-03-03 11:55:00,65.8,49.7,30.06,SSW,207,3.0,8.0,56,0.00,,,0.00,807,Wunderground v.1.15,2013-03-03 19:55:00,
2013-03-03 12:05:00,66.7,50.5,30.06,West,272,3.0,8.0,56,0.00,,,0.00,798,Wunderground v.1.15,2013-03-03 20:05:00,
2013-03-03 12:10:00,65.5,49.9,30.06,SW,230,2.0,8.0,57,0.00,,,0.00,475,Wunderground v.1.15,2013-03-03 20:10:00,
2013-03-03 12:15:00,65.7,49.1,30.05,South,191,3.0,8.0,55,0.00,,,0.00,545,Wunderground v.1.15,2013-03-03 20:15:00,
2013-03-03 12:20:00,66.6,51.4,30.05,West,262,3.0,3.0,58,0.00,,,0.00,645,Wunderground v.1.15,2013-03-03 20:20:00,
2013-03-03 12:30:00,67.4,51.2,30.05,South,171,3.0,8.0,56,0.00,,,0.00,638,Wunderground v.1.15,2013-03-03 20:30:00,
2013-03-03 12:35:00,67.7,49.4,30.05,WNW,293,3.0,8.0,52,0.00,,,0.00,543,Wunderground v.1.15,2013-03-03 20:35:00,
2013-03-03 12:40:00,66.9,49.7,30.04,WNW,293,3.0,8.0,54,0.00,,,0.00,550,Wunderground v.1.15,2013-03-03 20:40:00,
2013-03-03 12:45:00,67.3,50.1,30.04,WSW,239,3.0,8.0,54,0.00,,,0.00,587,Wunderground v.1.15,2013-03-03 20:45:00,
2013-03-03 12:55:00,67.6,50.4,30.04,SSW,206,3.0,6.0,54,0.00,,,0.00,636,Wunderground v.1.15,2013-03-03 20:55:00,
2013-03-03 13:00:00,67.6,49.3,30.04,West,271,3.0,8.0,52,0.00,,,0.00,608,Wunderground v.1.15,2013-03-03 21:00:00,
2013-03-03 13:05:00,67.7,50.5,30.03,NW,312,3.0,8.0,54,0.00,,,0.00,587,Wunderground v.1.15,2013-03-03 21:05:00,
2013-03-03 13:15:00,67.5,49.8,30.03,West,273,3.0,8.0,53,0.00,,,0.00,657,Wunderground v.1.15,2013-03-03 21:15:00,
2013-03-03 13:20:00,67.5,51.7,30.03,SSW,213,3.0,3.0,57,0.00,,,0.00,471,Wunderground v.1.15,2013-03-03 21:20:00,
2013-03-03 13:25:00,67.0,51.3,30.02,SSW,212,2.0,8.0,57,0.00,,,0.00,592,Wunderground v.1.15,2013-03-03 21:25:00,
2013-03-03 13:30:00,67.5,51.7,30.02,WSW,258,3.0,3.0,57,0.00,,,0.00,654,Wunderground v.1.15,2013-03-03 21:30:00,
2013-03-03 13:40:00,67.9,50.6,30.02,WNW,291,4.0,4.0,54,0.00,,,0.00,724,Wunderground v.1.15,2013-03-03 21:40:00,
2013-03-03 13:45:00,68.5,51.7,30.02,West,273,3.0,4.0,55,0.00,,,0.00,717,Wunderground v.1.15,2013-03-03 21:45:00,
2013-03-03 13:50:00,67.9,50.6,30.02,West,281,2.0,4.0,54,0.00,,,0.00,661,Wunderground v.1.15,2013-03-03 21:50:00,
2013-03-03 13:55:00,68.2,51.4,30.02,WNW,288,3.0,4.0,55,0.00,,,0.00,664,Wunderground v.1.15,2013-03-03 21:55:00,
2013-03-03 14:05:00,68.3,50.5,30.02,WSW,247,2.0,3.0,53,0.00,,,0.00,635,Wunderground v.1.15,2013-03-03 22:05:00,
2013-03-03 14:10:00,68.1,50.8,30.02,SSW,197,3.0,3.0,54,0.00,,,0.00,666,Wunderground v.1.15,2013-03-03 22:10:00,
2013-03-03 14:20:00,68.2,50.4,30.02,West,275,2.0,4.0,53,0.00,,,0.00,717,Wunderground v.1.15,2013-03-03 22:20:00,
2013-03-03 14:25:00,69.2,50.3,30.02,West,281,2.0,4.0,51,0.00,,,0.00,752,Wunderground v.1.15,2013-03-03 22:25:00,
2013-03-03 14:30:00,69.2,50.8,30.02,West,276,2.0,4.0,52,0.00,,,0.00,772,Wunderground v.1.15,2013-03-03 22:30:00,
2013-03-03 14:35:00,68.7,50.4,30.01,SSW,196,2.0,10.0,52,0.00,,,0.00,350,Wunderground v.1.15,2013-03-03 22:35:00,
2013-03-03 14:45:00,67.4,49.7,30.02,ESE,117,2.0,10.0,53,0.00,,,0.00,334,Wunderground v.1.15,2013-03-03 22:45:00,
2013-03-03 14:50:00,66.8,49.1,30.02,East,92,2.0,10.0,53,0.00,,,0.00,267,Wunderground v.1.15,2013-03-03 22:50:00,
2013-03-03 14:55:00,66.0,49.4,30.02,ESE,113,2.0,10.0,55,0.00,,,0.00,250,Wunderground v.1.15,2013-03-03 22:55:00,
2013-03-03 15:05:00,66.0,49.8,30.02,ESE,106,2.0,10.0,56,0.00,,,0.00,520,Wunderground v.1.15,2013-03-03 23:05:00,
2013-03-03 15:10:00,66.1,50.4,30.02,ENE,72,2.0,10.0,57,0.00,,,0.00,373,Wunderground v.1.15,2013-03-03 23:10:00,
2013-03-03 15:15:00,66.8,50.6,30.01,ENE,76,2.0,10.0,56,0.00,,,0.00,612,Wunderground v.1.15,2013-03-03 23:15:00,
2013-03-03 15:20:00,67.5,51.2,30.01,NE,53,2.0,10.0,56,0.00,,,0.00,406,Wunderground v.1.15,2013-03-03 23:20:00,
2013-03-03 15:30:00,66.4,50.2,30.01,ENE,73,3.0,3.0,56,0.00,,,0.00,304,Wunderground v.1.15,2013-03-03 23:30:00,
2013-03-03 15:35:00,66.9,51.2,30.01,SW,220,2.0,10.0,57,0.00,,,0.00,513,Wunderground v.1.15,2013-03-03 23:35:00,
2013-03-03 15:40:00,66.9,50.7,30.01,NW,313,1.0,10.0,56,0.00,,,0.00,476,Wunderground v.1.15,2013-03-03 23:40:00,
2013-03-03 15:45:00,67.0,49.8,30.01,ENE,71,1.0,10.0,54,0.00,,,0.00,503,Wunderground v.1.15,2013-03-03 23:45:00,
2013-03-03 15:50:00,67.1,49.9,30.01,WSW,258,1.0,10.0,54,0.00,,,0.00,480,Wunderground v.1.15,2013-03-03 23:50:00,
2013-03-03 16:00:00,66.9,49.2,30.01,West,277,2.0,10.0,53,0.00,,,0.00,281,Wunderground v.1.15,2013-03-04 00:00:00,
2013-03-03 16:05:00,66.2,49.1,30.01,West,275,2.0,10.0,54,0.00,,,0.00,311,Wunderground v.1.15,2013-03-04 00:05:00,
2013-03-03 16:10:00,65.8,49.2,30.01,WNW,293,3.0,3.0,55,0.00,,,0.00,281,Wunderground v.1.15,2013-03-04 00:10:00,
2013-03-03 16:20:00,64.9,49.8,30.01,WNW,288,3.0,3.0,58,0.00,,,0.00,225,Wunderground v.1.15,2013-03-04 00:20:00,
2013-03-03 16:25:00,64.1,49.5,30.01,WNW,290,3.0,8.0,59,0.00,,,0.00,84,Wunderground v.1.15,2013-03-04 00:25:00,
2013-03-03 16:30:00,63.1,49.0,30.01,West,275,4.0,10.0,60,0.00,,,0.00,72,Wunderground v.1.15,2013-03-04 00:30:00,
2013-03-03 16:35:00,62.1,48.9,30.01,WSW,256,4.0,10.0,62,0.00,,,0.00,83,Wunderground v.1.15,2013-03-04 00:35:00,
2013-03-03 16:45:00,61.1,49.2,30.02,WNW,283,3.0,10.0,65,0.00,,,0.00,62,Wunderground v.1.15,2013-03-04 00:45:00,
2013-03-03 16:50:00,60.8,49.0,30.02,WSW,257,2.0,10.0,65,0.00,,,0.00,62,Wunderground v.1.15,2013-03-04 00:50:00,
2013-03-03 16:55:00,60.5,49.1,30.02,WNW,297,3.0,10.0,66,0.00,,,0.00,62,Wunderground v.1.15,2013-03-04 00:55:00,
2013-03-03 17:00:00,60.3,48.9,30.02,WSW,254,1.0,10.0,66,0.00,,,0.00,54,Wunderground v.1.15,2013-03-04 01:00:00,
2013-03-03 17:10:00,59.6,49.4,30.02,WSW,247,0.0,10.0,69,0.00,,,0.00,35,Wunderground v.1.15,2013-03-04 01:10:00,
2013-03-03 17:15:00,59.4,48.8,30.03,WSW,247,0.0,10.0,68,0.00,,,0.00,32,Wunderground v.1.15,2013-03-04 01:15:00,
2013-03-03 17:20:00,58.9,49.1,30.03,WSW,247,0.0,10.0,70,0.00,,,0.00,28,Wunderground v.1.15,2013-03-04 01:20:00,
2013-03-03 17:30:00,58.4,48.7,30.03,ENE,62,0.0,10.0,70,0.00,,,0.00,25,Wunderground v.1.15,2013-03-04 01:30:00,
2013-03-03 17:35:00,58.6,48.8,30.03,ENE,62,1.0,10.0,70,0.00,,,0.00,25,Wunderground v.1.15,2013-03-04 01:35:00,
2013-03-03 17:40:00,58.4,48.7,30.03,East,94,1.0,10.0,70,0.00,,,0.00,19,Wunderground v.1.15,2013-03-04 01:40:00,
2013-03-03 17:45:00,58.0,48.3,30.03,ENE,72,2.0,10.0,70,0.00,,,0.00,18,Wunderground v.1.15,2013-03-04 01:45:00,
2013-03-03 17:55:00,57.0,47.7,30.03,ENE,63,0.0,10.0,71,0.00,,,0.00,9,Wunderground v.1.15,2013-03-04 01:55:00,
2013-03-03 18:00:00,56.0,47.5,30.04,ENE,63,0.0,10.0,73,0.00,,,0.00,7,Wunderground v.1.15,2013-03-04 02:00:00,
2013-03-03 18:10:00,54.9,46.4,30.04,ENE,63,0.0,10.0,73,0.00,,,0.00,0,Wunderground v.1.15,2013-03-04 02:10:00,
2013-03-03 18:15:00,54.3,46.9,30.04,ENE,63,0.0,10.0,76,0.00,,,0.00,0,Wunderground v.1.15,2013-03-04 02:15:00,
2013-03-03 18:20:00,53.2,45.5,30.04,ENE,63,0.0,10.0,75,0.00,,,0.00,0,Wunderground v.1.15,2013-03-04 02:20:00,
2013-03-03 18:30:00,53.0,45.6,30.04,ENE,63,1.0,10.0,76,0.00,,,0.00,0,Wunderground v.1.15,2013-03-04 02:30:00,
2013-03-03 18:35:00,53.1,45.4,30.04,ENE,63,2.0,10.0,75,0.00,,,0.00,0,Wunderground v.1.15,2013-03-04 02:35:00,
2013-03-03 18:40:00,52.1,45.1,30.04,ENE,63,1.0,1.0,77,0.00,,,0.00,0,Wunderground v.1.15,2013-03-04 02:40:00,
2013-03-03 18:45:00,51.7,44.4,30.04,ENE,63,0.0,10.0,76,0.00,,,0.00,0,Wunderground v.1.15,2013-03-04 02:45:00,
2013-03-03 18:50:00,50.9,44.6,30.04,ENE,63,0.0,10.0,79,0.00,,,0.00,0,Wunderground v.1.15,2013-03-04 02:50:00,
2013-03-03 19:00:00,50.7,44.4,30.04,ENE,63,0.0,10.0,79,0.00,,,0.00,0,Wunderground v.1.15,2013-03-04 03:00:00,
2013-03-03 19:05:00,49.5,43.3,30.04,ENE,63,0.0,10.0,79,0.00,,,0.00,0,Wunderground v.1.15,2013-03-04 03:05:00,
2013-03-03 19:10:00,49.2,43.6,30.04,ENE,63,0.0,10.0,81,0.00,,,0.00,0,Wunderground v.1.15,2013-03-04 03:10:00,
2013-03-03 19:20:00,48.2,42.6,30.04,ENE,63,0.0,10.0,81,0.00,,,0.00,0,Wunderground v.1.15,2013-03-04 03:20:00,
2013-03-03 19:25:00,48.2,43.3,30.04,ENE,63,0.0,10.0,83,0.00,,,0.00,0,Wunderground v.1.15,2013-03-04 03:25:00,
2013-03-03 19:30:00,47.8,42.6,30.04,ENE,63,0.0,10.0,82,0.00,,,0.00,0,Wunderground v.1.15,2013-03-04 03:30:00,
2013-03-03 19:40:00,46.7,41.8,30.05,ENE,63,0.0,10.0,83,0.00,,,0.00,0,Wunderground v.1.15,2013-03-04 03:40:00,
2013-03-03 19:45:00,46.9,42.0,30.05,ENE,63,0.0,10.0,83,0.00,,,0.00,0,Wunderground v.1.15,2013-03-04 03:45:00,
2013-03-03 19:50:00,47.2,42.6,30.05,ENE,63,0.0,10.0,84,0.00,,,0.00,0,Wunderground v.1.15,2013-03-04 03:50:00,
2013-03-03 20:00:00,47.5,42.3,30.05,ENE,63,0.0,10.0,82,0.00,,,0.00,0,Wunderground v.1.15,2013-03-04 04:00:00,
2013-03-03 20:05:00,47.2,42.3,30.05,ENE,63,0.0,10.0,83,0.00,,,0.00,0,Wunderground v.1.15,2013-03-04 04:05:00,
2013-03-03 20:10:00,46.8,42.2,30.05,ENE,63,0.0,10.0,84,0.00,,,0.00,0,Wunderground v.1.15,2013-03-04 04:10:00,
2013-03-03 20:15:00,46.6,42.0,30.05,ENE,63,0.0,10.0,84,0.00,,,0.00,0,Wunderground v.1.15,2013-03-04 04:15:00,
2013-03-03 20:25:00,45.8,41.2,30.05,ENE,63,0.0,10.0,84,0.00,,,0.00,0,Wunderground v.1.15,2013-03-04 04:25:00,
2013-03-03 20:30:00,45.7,41.1,30.05,ENE,63,0.0,10.0,84,0.00,,,0.00,0,Wunderground v.1.15,2013-03-04 04:30:00,
2013-03-03 20:35:00,44.7,40.2,30.06,ENE,63,0.0,10.0,84,0.00,,,0.00,0,Wunderground v.1.15,2013-03-04 04:35:00,
2013-03-03 20:40:00,44.9,41.0,30.06,ENE,63,0.0,10.0,86,0.00,,,0.00,0,Wunderground v.1.15,2013-03-04 04:40:00,
2013-03-03 20:50:00,45.2,41.0,30.06,ENE,63,0.0,10.0,85,0.00,,,0.00,0,Wunderground v.1.15,2013-03-04 04:50:00,
2013-03-03 20:55:00,45.1,41.2,30.06,ENE,63,0.0,10.0,86,0.00,,,0.00,0,Wunderground v.1.15,2013-03-04 04:55:00,
2013-03-03 21:00:00,44.5,40.6,30.07,ENE,63,0.0,10.0,86,0.00,,,0.00,0,Wunderground v.1.15,2013-03-04 05:00:00,
2013-03-03 21:05:00,45.1,41.2,30.07,ENE,63,0.0,10.0,86,0.00,,,0.00,0,Wunderground v.1.15,2013-03-04 05:05:00,
2013-03-03 21:10:00,45.7,41.8,30.07,ENE,63,0.0,10.0,86,0.00,,,0.00,0,Wunderground v.1.15,2013-03-04 05:10:00,
2013-03-03 21:15:00,46.0,42.0,30.07,ENE,63,0.0,10.0,86,0.00,,,0.00,0,Wunderground v.1.15,2013-03-04 05:15:00,
2013-03-03 21:20:00,46.1,42.1,30.07,ENE,63,0.0,10.0,86,0.00,,,0.00,0,Wunderground v.1.15,2013-03-04 05:20:00,
2013-03-03 21:25:00,46.6,42.6,30.07,ENE,63,0.0,10.0,86,0.00,,,0.00,0,Wunderground v.1.15,2013-03-04 05:25:00,
2013-03-03 21:35:00,47.8,43.5,30.07,ENE,63,0.0,10.0,85,0.00,,,0.00,0,Wunderground v.1.15,2013-03-04 05:35:00,
2013-03-03 21:40:00,47.8,43.2,30.07,ENE,63,0.0,10.0,84,0.00,,,0.00,0,Wunderground v.1.15,2013-03-04 05:40:00,
2013-03-03 21:50:00,47.9,43.3,30.07,ENE,63,0.0,10.0,84,0.00,,,0.00,0,Wunderground v.1.15,2013-03-04 05:50:00,
2013-03-03 21:55:00,48.2,43.3,30.07,ENE,63,1.0,10.0,83,0.00,,,0.00,0,Wunderground v.1.15,2013-03-04 05:55:00,
2013-03-03 22:00:00,47.5,42.6,30.07,ENE,63,0.0,10.0,83,0.00,,,0.00,0,Wunderground v.1.15,2013-03-04 06:00:00,
2013-03-03 22:05:00,46.8,41.9,30.07,ENE,63,0.0,10.0,83,0.00,,,0.00,0,Wunderground v.1.15,2013-03-04 06:05:00,
2013-03-03 22:10:00,46.6,42.0,30.07,ENE,63,0.0,10.0,84,0.00,,,0.00,0,Wunderground v.1.15,2013-03-04 06:10:00,
2013-03-03 22:20:00,45.9,41.6,30.07,ENE,63,0.0,10.0,85,0.00,,,0.00,0,Wunderground v.1.15,2013-03-04 06:20:00,
2013-03-03 22:25:00,45.0,40.8,30.07,ENE,63,0.0,10.0,85,0.00,,,0.00,0,Wunderground v.1.15,2013-03-04 06:25:00,
2013-03-03 22:30:00,44.5,40.6,30.07,ENE,63,0.0,10.0,86,0.00,,,0.00,0,Wunderground v.1.15,2013-03-04 06:30:00,
2013-03-03 22:35:00,43.8,39.6,30.08,ENE,63,0.0,10.0,85,0.00,,,0.00,0,Wunderground v.1.15,2013-03-04 06:35:00,
2013-03-03 22:45:00,44.2,40.6,30.08,ENE,63,0.0,10.0,87,0.00,,,0.00,0,Wunderground v.1.15,2013-03-04 06:45:00,
2013-03-03 22:50:00,44.3,40.7,30.08,ENE,63,0.0,10.0,87,0.00,,,0.00,0,Wunderground v.1.15,2013-03-04 06:50:00,
2013-03-03 22:55:00,44.4,40.8,30.08,ENE,63,0.0,10.0,87,0.00,,,0.00,0,Wunderground v.1.15,2013-03-04 06:55:00,
2013-03-03 23:00:00,45.0,41.4,30.08,ENE,63,0.0,10.0,87,0.00,,,0.00,0,Wunderground v.1.15,2013-03-04 07:00:00,
2013-03-03 23:10:00,46.0,42.0,30.08,ENE,63,0.0,10.0,86,0.00,,,0.00,0,Wunderground v.1.15,2013-03-04 07:10:00,
2013-03-03 23:15:00,45.6,41.7,30.08,ENE,63,0.0,10.0,86,0.00,,,0.00,0,Wunderground v.1.15,2013-03-04 07:15:00,
2013-03-03 23:20:00,45.7,41.8,30.08,ENE,63,0.0,10.0,86,0.00,,,0.00,0,Wunderground v.1.15,2013-03-04 07:20:00,
2013-03-03 23:30:00,46.0,41.7,30.07,NE,50,0.0,10.0,85,0.00,,,0.00,0,Wunderground v.1.15,2013-03-04 07:30:00,
2013-03-03 23:35:00,45.5,41.6,30.07,NE,50,0.0,10.0,86,0.00,,,0.00,0,Wunderground v.1.15,2013-03-04 07:35:00,
2013-03-03 23:40:00,45.2,41.3,30.07,NE,50,0.0,10.0,86,0.00,,,0.00,0,Wunderground v.1.15,2013-03-04 07:40:00,
2013-03-03 23:45:00,44.8,40.9,30.07,NE,50,0.0,10.0,86,0.00,,,0.00,0,Wunderground v.1.15,2013-03-04 07:45:00,
2013-03-03 23:55:00,43.9,40.0,30.08,NE,49,0.0,10.0,86,0.00,,,0.00,0,Wunderground v.1.15,2013-03-04 07:55:00,